Greenville Downtown, SC

9:13 PM EDT on May 21, 2018 (GMT -0400)
Greenville Downtown

Weather History for KGMU - February, 2015

Change the Weather History Date:

Saturday, February 14, 2015

  Actual Average Record
Temperature  
Mean Temperature 43 °F -  
Max Temperature 59 °F 53 °F 73 °F (2011)
Min Temperature 27 °F 35 °F 23 °F (1999)
Degree Days  
Heating Degree Days 22    
Moisture  
Dew Point 17 °F    
Average Humidity 37    
Maximum Humidity 53    
Minimum Humidity 24    
Precipitation  
Precipitation 0.00 in - - ()
Sea Level Pressure  
Sea Level Pressure 29.95 in    
Wind  
Wind Speed 8 mph (WSW)    
Max Wind Speed 26 mph    
Max Gust Speed 45 mph    
Visibility 10 miles    
Events      
Averages and records for this station are not official NWS values.
T = Trace of Precipitation, MM = Missing Value Source: NWS Daily Summary

Daily Weather History Graph

Daily Weather History Graph

Search for Another Location

Airport or City:

Astronomy

Feb. 14, 2015 Rise Set
Actual Time 7:16 AM EST 6:11 PM EST
Civil Twilight 6:50 AM EST 6:37 PM EST
Nautical Twilight 6:20 AM EST 7:06 PM EST
Astronomical Twilight 5:51 AM EST 7:36 PM EST
Moon 3:13 AM EST (2/14) 1:48 PM EST (2/14)
Length of Visible Light 11h 46m
Length of Day
10h 54m
Waning Crescent, 24% of the Moon is Illuminated
Feb 14
Waning Crescent
Feb 18
New
Feb 25
First Quarter
Mar 5
Full
Mar 13
Last Quarter

Hourly Weather History & Observations

Time (EST) Temp. Windchill Dew Point Humidity Pressure Visibility Wind Dir Wind Speed Gust Speed Precip Events Conditions
12:53 AM 30.9 °F - 10.9 °F 43% 30.15 in 10.0 mi Calm Calm - N/A   Clear
1:53 AM 30.0 °F - 12.0 °F 47% 30.13 in 10.0 mi Calm Calm - N/A   Clear
2:53 AM 28.9 °F 25.2 °F 12.0 °F 49% 30.11 in 10.0 mi West 3.5 mph - N/A   Clear
3:53 AM 28.0 °F - 12.0 °F 51% 30.10 in 10.0 mi Calm Calm - N/A   Clear
4:53 AM 28.0 °F 24.2 °F 12.0 °F 51% 30.08 in 10.0 mi WNW 3.5 mph - N/A   Clear
5:53 AM 28.0 °F - 12.0 °F 51% 30.07 in 10.0 mi Calm Calm - N/A   Clear
6:53 AM 27.0 °F 23.0 °F 12.0 °F 53% 30.05 in 10.0 mi West 3.5 mph - N/A   Clear
7:53 AM 28.9 °F 23.9 °F 10.9 °F 47% 30.04 in 10.0 mi WSW 4.6 mph - N/A   Clear
8:53 AM 34.0 °F 25.0 °F 10.9 °F 38% 30.04 in 10.0 mi WSW 12.7 mph - N/A   Clear
9:53 AM 37.9 °F 30.5 °F 12.9 °F 36% 30.01 in 10.0 mi SW 11.5 mph - N/A   Clear
10:53 AM 44.1 °F 37.4 °F 14.0 °F 30% 29.97 in 10.0 mi WSW 13.8 mph - N/A   Clear
11:53 AM 48.0 °F - 16.0 °F 28% 29.95 in 10.0 mi WSW 18.4 mph 26.5 mph N/A   Clear
12:53 PM 50.0 °F - 17.1 °F 27% 29.90 in 10.0 mi SW 16.1 mph 27.6 mph N/A   Clear
1:53 PM 53.1 °F - 19.0 °F 26% 29.84 in 10.0 mi SW 18.4 mph 28.8 mph N/A   Clear
2:53 PM 57.9 °F - 24.1 °F 27% 29.81 in 10.0 mi WSW 23.0 mph 34.5 mph N/A   Scattered Clouds
3:53 PM 59.0 °F - 25.0 °F 27% 29.79 in 10.0 mi WSW 21.9 mph 29.9 mph N/A   Overcast
4:53 PM 55.9 °F - 24.1 °F 29% 29.79 in 10.0 mi WSW 15.0 mph 32.2 mph N/A   Overcast
5:53 PM 55.9 °F - 26.1 °F 32% 29.78 in 10.0 mi West 26.5 mph 44.9 mph N/A   Mostly Cloudy
6:53 PM 54.0 °F - 25.0 °F 33% 29.80 in 10.0 mi West 26.5 mph 40.3 mph N/A   Overcast
7:53 PM 53.1 °F - 25.0 °F 34% 29.81 in 10.0 mi West 25.3 mph 35.7 mph N/A   Overcast
8:53 PM 51.1 °F - 21.9 °F 32% 29.84 in 10.0 mi West 20.7 mph 34.5 mph N/A   Partly Cloudy
9:53 PM 48.0 °F - 19.0 °F 32% 29.88 in 10.0 mi WNW 11.5 mph 23.0 mph N/A   Clear
10:53 PM 44.1 °F 36.5 °F 17.1 °F 34% 29.91 in 10.0 mi West 17.3 mph 28.8 mph N/A   Clear
11:53 PM 41.0 °F 33.5 °F 6.1 °F 24% 29.94 in 10.0 mi WNW 13.8 mph 24.2 mph N/A   Clear